This demonstration page uses our WeatherBlox Daily Observations layout. Learn more.

Left ArrowRight Arrow

Hourly Observations for January 11, 2018

Temp ( °F °C ) Dew Point ( °F °C ) Humidity (%) Winds ( mph kmh ) Pressure ( in mb ) Visibility ( mi km ) Precip ( " mm )
12:53 am 00:53 Cloudy 20 -6.7 11 -11.7 68 68 N 29 46 29.80 1009 10 16 0.00 0.00
1:36 am 01:36 Windy with Snow Likely 18 -7.8 9 -12.8 68 68 N 33 54 29.94 1014 6 10 0.00 0.03
1:53 am 01:53 Windy with Snow Likely 17 -8.3 8 -13.3 68 68 N 37 59 29.85 1011 5 8 0.00 0.03
2:29 am 02:29 Windy with Snow Likely 16 -8.9 9 -12.8 74 74 NNW 26 43 29.97 1015 6 10 0.00 0.03
2:51 am 02:51 Windy with Snow Likely 16 -9 10 -12 79 79 N 26 43 29.97 1015 6 10 0.00 0.03
2:53 am 02:53 Windy with Snow Likely 16 -8.9 10 -12.2 77 77 NNW 30 48 29.89 1012 4 6 0.00 0.03
3:21 am 03:21 Windy with Snow Likely 14 -10 8 -13.3 77 77 NNW 33 54 30.03 1017 2 3 0.00 0.03
3:53 am 03:53 Mostly Cloudy with Light Snow 13 -10.6 9 -12.8 84 84 N 31 50 29.92 1013 1 2 0.00 0.03
3:58 am 03:58 Mostly Cloudy with Light Snow 12 -11 9 -13 85 85 N 29 46 30.03 1017 1 1 0.00 0.00
4:21 am 04:21 Mostly Cloudy with Freezing Fog 12 -11.1 8 -13.3 84 84 NNW 33 54 30.06 1018 1 1 0.00 0.03
4:53 am 04:53 Mostly Cloudy with Light Snow 11 -11.7 7 -13.9 84 84 NNW 33 54 29.95 1014 1 1 0.00 0.03
5:21 am 05:21 Mostly Cloudy with Light Snow 10 -12.2 6 -14.4 84 84 NNW 36 57 30.09 1019 1 1 0.00 0.03
5:40 am 05:40 Mostly Cloudy with Light Snow 10 -12 7 -14 85 85 N 29 46 30.09 1019 1 2 0.00 0.00
5:48 am 05:48 Mostly Cloudy with Light Snow 10 -12 7 -14 85 85 N 25 41 30.12 1020 1 2 0.00 0.00
5:53 am 05:53 Windy with Snow Likely 10 -12.2 6 -14.4 84 84 NNW 26 43 30.00 1016 1 2 0.00 0.03
6:28 am 06:28 Cloudy with Blowing Snow 9 -12.8 2 -16.7 73 73 N 31 50 30.18 1022 3 5 0.00 0.03
6:53 am 06:53 Cloudy with Blowing Snow 8 -13.3 2 -16.7 76 76 NNW 32 52 30.06 1018 3 4 0.00 0.03
7:10 am 07:10 Mostly Cloudy with Blowing Snow 9 -13 1 -17 72 72 NNW 30 48 30.21 1023 5 8 0.00 0.00
7:32 am 07:32 Mostly Cloudy with Blowing Snow 7 -14 0 -18 72 72 NNW 35 56 30.21 1023 3 5 0.00 0.00
7:42 am 07:42 Partly Cloudy with Scattered Snow Showers 7 -13.9 -1 -18.3 70 70 NNW 31 50 30.21 1023 4 6 0.00 0.03
7:49 am 07:49 Mostly Cloudy 7 -14 0 -18 72 72 N 25 41 30.21 1023 8 13 0.00 0.03
7:53 am 07:53 Mostly Cloudy 7 -13.9 0 -17.8 73 73 NNW 25 41 30.10 1019 10 16 0.00 0.03
8:26 am 08:26 Partly Cloudy 7 -14 -2 -19 66 66 N 26 43 30.27 1025 10 16 0.00 0.00
8:41 am 08:41 Mostly Cloudy 7 -14 -2 -19 66 66 NNW 25 41 30.27 1025 10 16 0.00 0.00
8:53 am 08:53 Mostly Cloudy 6 -14.4 -2 -18.9 69 69 NNW 23 37 30.16 1021 10 16 0.00 0.00
9:44 am 09:44 Mostly Sunny 7 -14 -2 -19 66 66 NNW 32 52 30.30 1026 10 16 0.00 0.00
9:53 am 09:53 Mostly Sunny 6 -14.4 -3 -19.4 66 66 NNW 33 54 30.21 1023 10 16 0.00 0.00
10:25 am 10:25 Mostly Cloudy 6 -14.4 -4 -20 63 63 NNW 33 54 30.36 1028 10 16 0.00 0.00
10:53 am 10:53 Mostly Cloudy 8 -13.3 -2 -18.9 63 63 NNW 29 46 30.25 1024 10 16 0.00 0.00
11:53 am 11:53 Mostly Sunny 10 -12.2 -1 -18.3 61 61 NNW 30 48 30.25 1025 10 16 0.00 0.00
12:53 pm 12:53 Sunny 13 -10.6 1 -17.2 59 59 NNW 30 48 30.25 1024 10 16 0.00 0.00
1:53 pm 13:53 Sunny 14 -10 2 -16.7 58 58 NNW 32 52 30.24 1024 10 16 0.00 0.00
2:53 pm 14:53 Sunny 15 -9.4 3 -16.1 59 59 NNW 25 41 30.28 1026 10 16 0.00 0.00
3:53 pm 15:53 Sunny 14 -10 2 -16.7 58 58 NNW 25 41 30.31 1027 10 16 0.00 0.00
4:53 pm 16:53 Sunny 13 -10.6 2 -16.7 61 61 NNW 23 37 30.38 1029 10 16 0.00 0.03
5:53 pm 17:53 Clear 11 -11.7 1 -17.2 64 64 N 13 20 30.40 1029 10 16 0.00 0.00
6:53 pm 18:53 Clear 10 -12.2 0 -17.8 63 63 N 16 26 30.42 1030 10 16 0.00 0.00
7:53 pm 19:53 Clear 8 -13.3 -1 -18.3 66 66 N 10 17 30.44 1031 10 16 0.00 0.00
8:53 pm 20:53 Clear 6 -14.4 -1 -18.3 73 73 N 10 17 30.44 1031 10 16 0.00 0.00
9:53 pm 21:53 Clear 6 -14.4 -2 -18.9 69 69 N 13 20 30.44 1031 10 16 0.00 0.00
10:53 pm 22:53 Clear 5 -15 -2 -18.9 72 72 N 12 19 30.45 1031 10 16 0.00 0.00
11:53 pm 23:53 Clear 4 -15.6 -2 -18.9 76 76 N 13 20 30.42 1030 10 16 0.00 0.00

Powered by AerisWeather